Wind_Speed
50 51 51 52 54 55 55 56 56 55 54 54 54 52 53 54 54 56 55 54 54 53 52 50 49 47 46 46 46 47 47 48 50 51 51 52 53 54
48 48 48 49 50 51 51 52 52 51 50 49 49 48 48 49 51 52 53 54 54 54 53 50 50 48 47 47 48 49 51 51 52 52 54 55 55 56
44 44 45 47 47 47 47 46 46 46 46 45 46 47 45 46 48 50 51 52 51 52 51 50 49 49 49 50 51 53 53 53 54 55 55 56 57 58
40 41 42 42 42 42 42 42 41 40 39 39 40 42 44 43 44 46 48 50 50 51 51 51 51 52 53 53 53 54 55 55 56 56 56 57 57 58
37 37 38 38 38 37 37 36 35 35 35 35 34 34 36 39 41 43 45 47 49 50 51 52 53 53 53 53 53 54 54 54 54 55 55 56 58 59
35 35 35 35 34 33 33 32 30 29 30 30 29 29 31 34 36 38 41 44 45 48 49 50 51 52 52 53 53 53 54 54 55 56 57 58 59 61
33 32 32 31 30 30 29 28 26 25 25 25 26 27 29 32 34 36 38 40 43 45 47 49 51 52 53 54 55 55 56 57 58 58 59 60 61 62
30 29 29 28 28 27 26 25 24 24 24 24 24 26 27 29 31 34 37 39 42 44 47 49 51 52 54 55 56 57 57 58 59 59 59 60 61 62
27 28 27 27 27 26 26 26 25 25 24 25 25 26 28 30 32 34 36 39 42 45 47 49 51 53 55 56 57 57 58 58 58 58 58 58 58 58
27 27 27 27 27 26 26 26 26 26 26 26 27 29 30 32 34 37 39 42 44 47 49 51 53 54 56 57 57 58 57 57 57 57 56 56 56 56
27 27 27 27 27 27 28 28 28 28 29 30 31 32 34 36 38 40 42 45 47 49 51 52 54 55 56 57 57 56 56 55 54 54 53 53 53 52
28 28 28 28 29 29 30 30 31 32 32 33 34 36 37 39 41 43 45 47 50 52 53 54 55 55 54 55 55 54 54 53 52 51 50 49 48 47
29 29 30 30 31 31 32 33 34 35 36 37 38 39 41 43 45 47 49 50 52 53 54 54 54 54 53 52 52 52 51 50 49 48 47 45 44 43
30 31 32 33 33 34 35 35 36 37 39 40 41 43 45 46 48 50 51 52 53 54 54 54 53 52 51 49 48 48 48 47 46 45 44 43 42 41
32 33 34 34 35 36 37 38 39 40 42 43 45 46 47 49 50 51 52 53 54 54 53 52 51 49 48 47 45 45 45 44 44 43 42 41 41 41
34 34 35 36 37 38 39 41 42 43 44 46 48 49 50 51 52 53 53 54 53 53 52 50 49 47 46 44 43 42 43 42 42 42 40 40 40 40
35 36 37 38 39 40 41 43 44 46 47 49 50 51 52 54 54 55 54 54 52 51 51 50 48 46 44 42 41 41 41 41 41 40 39 37 38 39
36 37 38 39 40 42 43 45 47 48 50 51 52 54 55 55 56 55 54 52 50 49 49 48 47 45 42 40 40 39 40 40 39 39 38 36 36 38
37 38 39 40 42 43 45 47 49 50 51 53 55 56 56 56 56 54 52 50 49 47 46 46 45 43 40 38 37 40 40 39 39 38 38 37 35 37
38 39 40 42 43 45 47 48 50 52 53 55 56 56 56 55 53 51 49 48 46 44 43 43 43 42 40 37 34 36 40 39 38 38 38 37 36 36
39 40 41 43 44 46 48 50 51 53 54 55 56 55 54 52 50 49 47 46 44 42 40 41 42 41 39 37 34 33 37 40 39 37 36 36 35 35
40 41 42 44 46 48 49 51 52 54 55 55 54 53 51 50 49 47 46 44 42 40 39 38 39 39 38 37 35 33 33 37 39 38 37 36 35 33
41 42 44 45 47 49 50 52 53 54 54 54 52 51 50 49 47 46 44 42 40 38 37 36 36 36 36 36 34 33 33 34 36 36 36 37 36 34
Wind_Direction
296 296 296 296 295 293 291 289 286 282 278 274 268 267 262 259 259 260 261 262 264 267 269 269 269 272 273 271 269 270 271 272 272 272 271 270 270 269
297 298 299 300 298 296 295 291 287 284 280 275 270 267 264 259 258 259 259 263 265 266 270 271 272 273 273 273 274 274 275 276 274 273 271 271 270 270
300 301 302 303 302 300 299 295 290 286 282 278 273 270 267 263 259 259 260 264 265 267 270 273 274 274 274 276 276 276 277 276 275 274 273 272 271 270
303 304 306 308 308 306 303 299 293 288 287 281 279 275 269 267 265 263 263 265 266 269 272 273 274 277 278 278 279 278 277 276 276 275 274 274 272 271
304 307 310 311 311 310 308 305 299 292 290 287 284 279 273 270 269 267 267 268 270 272 273 275 277 279 280 280 280 280 279 278 277 276 275 274 273 272
305 308 311 313 313 313 312 310 306 301 298 293 290 285 280 276 273 272 271 273 274 275 276 277 279 280 281 281 281 281 280 279 278 277 277 275 274 273
305 308 311 314 315 315 315 313 311 308 305 300 294 290 286 283 279 277 276 277 279 279 279 279 281 282 282 283 283 282 282 281 280 279 278 277 276 274
305 307 310 313 315 316 316 315 314 311 306 302 298 292 288 286 284 282 281 281 282 281 282 282 283 284 284 284 284 284 284 283 282 281 279 278 276 275
305 307 309 311 312 314 315 314 313 311 309 305 301 297 294 292 290 288 287 286 286 286 286 286 286 286 287 287 286 286 285 284 283 281 280 278 277 277
305 307 309 311 312 313 314 314 312 310 308 305 303 300 297 294 292 291 290 290 289 289 289 288 288 288 288 288 287 286 285 284 283 282 280 279 278 277
306 307 309 310 311 312 312 311 310 308 306 304 302 300 298 296 295 294 293 292 292 291 291 290 290 290 289 289 288 286 286 285 284 283 281 279 279 277
306 307 308 310 310 311 310 309 308 307 305 304 303 302 300 299 298 297 296 295 295 294 293 293 292 291 290 289 288 286 286 285 284 283 281 280 278 277
307 308 309 309 309 309 309 309 308 306 305 305 304 303 302 301 300 299 298 298 297 296 295 294 293 291 290 289 287 286 286 285 284 283 281 279 278 276
308 308 308 309 309 309 309 308 308 307 306 305 305 304 303 302 302 301 300 300 298 297 296 294 293 291 290 288 286 285 285 284 283 282 281 280 278 277
308 308 308 308 308 308 309 309 308 308 307 307 306 305 305 304 303 303 302 301 299 298 296 295 293 291 290 288 285 283 282 282 281 281 280 279 278 277
307 308 308 308 309 309 309 310 309 309 309 308 308 307 306 305 305 304 303 302 300 298 296 295 293 292 290 288 285 282 281 279 279 279 279 278 277 276
307 308 308 309 310 310 310 311 311 311 310 310 310 309 308 307 305 304 303 302 299 297 296 295 294 292 290 288 284 281 279 279 278 278 277 276 275 275
308 308 309 310 310 311 311 312 312 312 312 312 311 310 309 308 306 305 303 301 299 297 295 294 293 292 290 287 285 282 280 278 277 277 277 275 274 275
308 309 310 311 311 312 312 313 313 313 314 313 313 312 310 309 308 306 304 301 299 297 295 294 292 291 289 286 284 283 281 278 277 277 276 275 273 273
308 309 310 311 312 313 313 314 314 315 315 315 314 313 312 311 309 307 305 303 300 298 296 294 292 291 290 287 284 282 281 279 277 276 275 275 274 273
307 308 310 311 312 313 314 315 315 316 316 316 316 315 314 312 311 309 307 305 302 299 297 294 293 292 290 288 285 282 281 280 278 277 276 274 273 272
307 308 310 312 313 314 315 316 316 317 318 318 317 316 315 314 313 311 309 307 304 301 298 296 294 292 291 289 287 284 281 280 279 279 278 275 272 270
307 309 310 312 314 315 316 317 317 318 319 319 319 318 317 316 315 313 311 309 306 304 301 298 295 293 291 290 289 286 283 281 280 279 279 279 276 273
Height
5708 5702 5696 5690 5684 5677 5671 5665 5659 5656 5656 5655 5654 5653 5654 5656 5658 5660 5662 5663 5664 5665 5666 5666 5666 5667 5667 5668 5669 5669 5670 5671 5672 5672 5673 5674 5674 5675
5696 5690 5684 5677 5670 5664 5657 5650 5644 5640 5638 5639 5637 5637 5637 5639 5642 5645 5647 5649 5650 5651 5652 5652 5652 5653 5653 5654 5654 5655 5655 5655 5656 5656 5656 5657 5657 5658
5685 5679 5672 5665 5658 5651 5644 5637 5632 5627 5624 5624 5623 5624 5625 5627 5629 5631 5633 5635 5637 5637 5638 5638 5639 5639 5639 5639 5639 5639 5639 5639 5639 5639 5639 5639 5639 5640
5675 5668 5662 5654 5647 5640 5633 5627 5621 5617 5614 5613 5612 5612 5613 5615 5617 5619 5621 5623 5624 5625 5625 5625 5625 5624 5624 5624 5623 5623 5622 5622 5621 5621 5621 5621 5621 5621
5665 5659 5653 5645 5638 5631 5625 5619 5613 5609 5607 5605 5604 5603 5604 5605 5606 5608 5610 5611 5612 5612 5612 5612 5610 5609 5609 5608 5607 5606 5605 5604 5604 5603 5602 5602 5601 5601
5656 5651 5644 5638 5631 5625 5618 5613 5607 5604 5601 5598 5597 5596 5597 5597 5598 5599 5600 5600 5600 5600 5599 5598 5597 5595 5593 5592 5591 5589 5588 5586 5585 5584 5583 5582 5581 5581
5648 5643 5637 5631 5625 5619 5614 5608 5603 5599 5596 5594 5592 5591 5591 5590 5590 5590 5590 5589 5589 5587 5586 5585 5583 5580 5578 5576 5574 5572 5570 5568 5566 5565 5563 5561 5560 5559
5641 5636 5631 5626 5620 5615 5609 5604 5600 5596 5593 5590 5588 5587 5585 5584 5583 5582 5580 5580 5578 5577 5574 5571 5568 5565 5562 5560 5557 5554 5551 5549 5547 5544 5542 5540 5539 5537
5634 5630 5625 5620 5615 5610 5605 5600 5596 5592 5589 5586 5583 5581 5579 5577 5575 5573 5571 5569 5566 5564 5560 5557 5553 5550 5546 5542 5539 5535 5532 5530 5527 5525 5522 5520 5518 5516
5627 5623 5619 5614 5609 5604 5600 5596 5591 5587 5584 5580 5577 5575 5572 5569 5567 5564 5561 5557 5554 5550 5547 5543 5537 5533 5529 5525 5521 5517 5514 5511 5508 5505 5503 5500 5498 5496
5621 5616 5612 5608 5603 5599 5594 5590 5586 5582 5578 5574 5571 5567 5563 5560 5556 5553 5549 5545 5541 5536 5532 5528 5522 5517 5512 5507 5502 5498 5495 5493 5490 5487 5484 5482 5480 5478
5614 5610 5605 5601 5597 5592 5588 5583 5579 5575 5570 5566 5562 5558 5554 5549 5545 5541 5536 5531 5526 5521 5515 5511 5505 5500 5496 5489 5484 5480 5477 5475 5472 5470 5467 5465 5463 5461
5606 5602 5598 5594 5589 5585 5580 5576 5571 5567 5562 5557 5552 5548 5543 5538 5533 5527 5522 5516 5510 5504 5499 5494 5488 5483 5478 5474 5468 5463 5460 5457 5455 5453 5450 5448 5447 5446
5599 5595 5591 5586 5582 5577 5572 5567 5562 5557 5552 5547 5542 5537 5531 5525 5519 5513 5507 5500 5494 5488 5482 5477 5472 5467 5462 5458 5453 5449 5445 5442 5440 5437 5435 5433 5432 5431
5591 5587 5583 5578 5573 5568 5563 5558 5553 5547 5542 5536 5530 5524 5518 5511 5505 5498 5491 5484 5477 5471 5465 5460 5456 5451 5447 5443 5439 5434 5431 5428 5425 5424 5422 5420 5418 5416
5583 5579 5574 5569 5564 5559 5554 5548 5542 5536 5530 5524 5517 5511 5504 5497 5490 5483 5475 5468 5461 5454 5448 5444 5439 5435 5431 5427 5424 5420 5416 5414 5412 5410 5409 5407 5405 5403
5575 5570 5565 5560 5555 5549 5544 5538 5531 5525 5518 5511 5504 5496 5489 5481 5474 5467 5459 5452 5445 5438 5431 5427 5423 5419 5416 5412 5409 5405 5402 5400 5398 5397 5396 5395 5393 5390
5566 5561 5556 5551 5545 5539 5533 5526 5520 5513 5505 5498 5490 5482 5474 5466 5457 5450 5443 5436 5429 5423 5416 5411 5407 5404 5401 5398 5395 5391 5389 5386 5385 5383 5383 5383 5382 5378
5557 5552 5547 5541 5535 5529 5522 5515 5508 5500 5492 5484 5476 5467 5458 5450 5441 5433 5426 5420 5414 5408 5402 5396 5392 5389 5387 5385 5382 5377 5374 5372 5371 5371 5370 5369 5370 5368
5548 5542 5537 5531 5525 5518 5511 5504 5496 5488 5479 5471 5462 5452 5443 5435 5426 5418 5411 5404 5399 5393 5388 5382 5378 5375 5372 5371 5370 5366 5360 5359 5358 5358 5357 5356 5356 5355
5538 5532 5527 5521 5514 5507 5500 5492 5484 5475 5467 5457 5448 5438 5429 5420 5412 5404 5397 5390 5385 5380 5375 5370 5364 5361 5359 5357 5357 5355 5349 5345 5344 5344 5344 5343 5343 5343
5528 5522 5516 5510 5503 5496 5488 5480 5472 5463 5454 5444 5434 5425 5416 5407 5399 5391 5384 5378 5372 5367 5363 5358 5353 5349 5346 5343 5342 5342 5339 5334 5331 5331 5330 5329 5329 5331
5517 5512 5506 5499 5492 5484 5476 5468 5459 5450 5441 5431 5422 5412 5403 5395 5387 5379 5372 5366 5360 5355 5350 5347 5342 5338 5334 5331 5330 5328 5327 5323 5321 5320 5318 5315 5315 5316